When you browse on this site, cookies collect data to enhance your experience and personalize the content and advertising you see.
Visit our Privacy Policy to learn more. By continuing to use the site, you agree to this use of cookies and data.
  • In Latvia
  • List of Countries
  • For 7 days
  • Water Temperature
  • Weather Map
  • Weather Widgets
  • user-avatar
    Login

    Hourly Weather Mingachevir

    Today, 3 June, Wednesday

    Time Temperature Precipitation Wind Pressure Humidity
    00:00 +24°C° 0.2 mm 3 mps 745 mmHg 69%
    01:00 +24°C° 0.1 mm 3 mps 745 mmHg 71%
    02:00 +22°C° 0.1 mm 3 mps 744 mmHg 73%
    03:00 +22°C° 0 mm 4 mps 744 mmHg 78%
    04:00 +23°C° 0 mm 4 mps 745 mmHg 74%
    05:00 +23°C° 0 mm 4 mps 745 mmHg 71%
    06:00 +25°C° 0 mm 4 mps 745 mmHg 67%
    07:00 +27°C° 0 mm 4 mps 744 mmHg 60%
    08:00 +29°C° 0 mm 4 mps 744 mmHg 52%
    09:00 +32°C° 0 mm 4 mps 744 mmHg 44%
    10:00 +34°C° 0 mm 4 mps 744 mmHg 39%
    11:00 +35°C° 0 mm 4 mps 744 mmHg 34%
    12:00 +37°C° 0 mm 4 mps 744 mmHg 29%
    13:00 +39°C° 0 mm 6 mps 744 mmHg 27%
    14:00 +39°C° 0 mm 7 mps 744 mmHg 26%
    15:00 +40°C° 0 mm 6 mps 744 mmHg 22%
    16:00 +37°C° 0.2 mm 8 mps 744 mmHg 30%
    17:00 +33°C° 0.2 mm 9 mps 745 mmHg 37%
    18:00 +29°C° 0.2 mm 10 mps 745 mmHg 45%
    19:00 +28°C° 0.3 mm 8 mps 746 mmHg 49%
    20:00 +26°C° 0.3 mm 6 mps 746 mmHg 54%
    21:00 +25°C° 0.3 mm 3 mps 747 mmHg 58%
    22:00 +25°C° 0 mm 4 mps 747 mmHg 57%
    23:00 +25°C° 0 mm 4 mps 747 mmHg 55%

    Tomorrow, 4 June, Thursday

    Time Temperature Precipitation Wind Pressure Humidity
    00:00 +25°C° 0 mm 4 mps 747 mmHg 54%
    01:00 +23°C° 0 mm 5 mps 747 mmHg 57%
    02:00 +22°C° 0 mm 5 mps 747 mmHg 61%
    03:00 +22°C° 0 mm 5 mps 748 mmHg 64%
    04:00 +22°C° 0 mm 5 mps 748 mmHg 63%
    05:00 +22°C° 0 mm 4 mps 748 mmHg 61%
    06:00 +23°C° 0 mm 4 mps 749 mmHg 60%
    07:00 +26°C° 0 mm 3 mps 749 mmHg 54%
    08:00 +27°C° 0 mm 3 mps 749 mmHg 49%
    09:00 +29°C° 0 mm 2 mps 748 mmHg 43%
    10:00 +30°C° 0 mm 2 mps 748 mmHg 40%
    11:00 +32°C° 0 mm 2 mps 748 mmHg 36%
    12:00 +34°C° 0 mm 2 mps 748 mmHg 33%
    13:00 +35°C° 0 mm 3 mps 748 mmHg 32%
    14:00 +36°C° 0 mm 4 mps 748 mmHg 32%
    15:00 +36°C° 0 mm 6 mps 748 mmHg 32%
    16:00 +35°C° 0 mm 7 mps 748 mmHg 37%
    17:00 +33°C° 0 mm 7 mps 748 mmHg 43%
    18:00 +31°C° 0 mm 8 mps 748 mmHg 48%
    19:00 +29°C° 0 mm 8 mps 749 mmHg 53%
    20:00 +27°C° 0 mm 7 mps 749 mmHg 58%
    21:00 +24°C° 0 mm 7 mps 750 mmHg 63%
    22:00 +24°C° 0 mm 6 mps 750 mmHg 66%
    23:00 +23°C° 0 mm 5 mps 750 mmHg 69%

    Day after tomorrow, 5 June, Friday

    Time Temperature Precipitation Wind Pressure Humidity
    00:00 +22°C° 0 mm 4 mps 750 mmHg 72%
    01:00 +22°C° 0 mm 3 mps 751 mmHg 73%
    02:00 +21°C° 0 mm 2 mps 751 mmHg 75%
    03:00 +22°C° 0 mm 1 mps 751 mmHg 76%
    04:00 +21°C° 0 mm 3 mps 751 mmHg 74%
    05:00 +22°C° 0 mm 4 mps 752 mmHg 72%
    06:00 +22°C° 0 mm 6 mps 752 mmHg 69%
    07:00 +24°C° 0 mm 6 mps 752 mmHg 62%
    08:00 +27°C° 0 mm 6 mps 752 mmHg 55%
    09:00 +29°C° 0 mm 6 mps 752 mmHg 47%
    10:00 +30°C° 0 mm 5 mps 752 mmHg 43%
    11:00 +32°C° 0 mm 5 mps 751 mmHg 39%
    12:00 +34°C° 0 mm 4 mps 751 mmHg 35%
    13:00 +35°C° 0.1 mm 4 mps 751 mmHg 31%
    14:00 +35°C° 0.1 mm 4 mps 751 mmHg 28%
    15:00 +36°C° 0.1 mm 4 mps 751 mmHg 24%
    16:00 +35°C° 0.1 mm 4 mps 751 mmHg 27%
    17:00 +34°C° 0.1 mm 4 mps 751 mmHg 29%
    18:00 +33°C° 0.1 mm 4 mps 751 mmHg 31%
    19:00 +30°C° 0 mm 4 mps 752 mmHg 39%
    20:00 +28°C° 0 mm 5 mps 753 mmHg 46%
    21:00 +26°C° 0 mm 6 mps 754 mmHg 53%
    22:00 +25°C° 0 mm 5 mps 754 mmHg 55%
    23:00 +23°C° 0 mm 4 mps 754 mmHg 57%

    6 June, Saturday

    Time Temperature Precipitation Wind Pressure Humidity
    00:00 +24°C° 0 mm 3 mps 754 mmHg 59%
    01:00 +23°C° 0 mm 2 mps 755 mmHg 60%
    02:00 +23°C° 0 mm 2 mps 755 mmHg 62%
    03:00 +21°C° 0 mm 2 mps 755 mmHg 63%
    04:00 +23°C° 0 mm 2 mps 755 mmHg 61%
    05:00 +23°C° 0 mm 2 mps 755 mmHg 59%
    06:00 +24°C° 0 mm 2 mps 755 mmHg 57%
    07:00 +25°C° 0.1 mm 3 mps 755 mmHg 53%
    08:00 +26°C° 0.1 mm 4 mps 755 mmHg 49%
    09:00 +28°C° 0.1 mm 4 mps 755 mmHg 45%
    10:00 +29°C° 0 mm 4 mps 755 mmHg 43%
    11:00 +30°C° 0 mm 4 mps 755 mmHg 40%
    12:00 +33°C° 0 mm 4 mps 755 mmHg 37%
    13:00 +33°C° 0 mm 5 mps 754 mmHg 37%
    14:00 +33°C° 0 mm 5 mps 754 mmHg 38%
    15:00 +33°C° 0 mm 5 mps 754 mmHg 38%
    16:00 +32°C° 0 mm 5 mps 754 mmHg 39%
    17:00 +30°C° 0 mm 5 mps 754 mmHg 41%
    18:00 +30°C° 0 mm 5 mps 754 mmHg 42%
    19:00 +28°C° 0.2 mm 5 mps 755 mmHg 46%
    20:00 +26°C° 0.2 mm 5 mps 755 mmHg 50%
    21:00 +25°C° 0.2 mm 5 mps 755 mmHg 54%
    22:00 +23°C° 0.2 mm 5 mps 755 mmHg 57%
    23:00 +22°C° 0.2 mm 4 mps 755 mmHg 60%

    7 June, Sunday

    Time Temperature Precipitation Wind Pressure Humidity
    00:00 +21°C° 0.2 mm 3 mps 755 mmHg 63%
    01:00 +21°C° 0 mm 3 mps 755 mmHg 64%
    02:00 +20°C° 0 mm 2 mps 755 mmHg 64%
    03:00 +20°C° 0 mm 2 mps 755 mmHg 65%
    04:00 +20°C° 0 mm 2 mps 755 mmHg 63%
    05:00 +22°C° 0 mm 1 mps 755 mmHg 61%
    06:00 +22°C° 0 mm 1 mps 755 mmHg 59%
    07:00 +24°C° 0 mm 1 mps 755 mmHg 54%
    08:00 +26°C° 0 mm 1 mps 755 mmHg 48%
    09:00 +27°C° 0 mm 1 mps 755 mmHg 42%
    10:00 +29°C° 0 mm 1 mps 755 mmHg 40%
    11:00 +30°C° 0 mm 2 mps 755 mmHg 37%
    12:00 +31°C° 0 mm 2 mps 754 mmHg 34%
    13:00 +32°C° 0 mm 2 mps 754 mmHg 32%
    14:00 +34°C° 0 mm 3 mps 754 mmHg 31%
    15:00 +34°C° 0 mm 3 mps 753 mmHg 29%
    16:00 +34°C° 0 mm 3 mps 753 mmHg 29%
    17:00 +34°C° 0 mm 3 mps 753 mmHg 29%
    18:00 +33°C° 0 mm 4 mps 753 mmHg 29%
    19:00 +30°C° 0 mm 4 mps 754 mmHg 35%
    20:00 +28°C° 0 mm 4 mps 754 mmHg 40%
    21:00 +26°C° 0 mm 5 mps 754 mmHg 46%
    22:00 +25°C° 0 mm 4 mps 754 mmHg 47%
    23:00 +24°C° 0 mm 3 mps 754 mmHg 48%

    8 June, Monday

    Time Temperature Precipitation Wind Pressure Humidity
    00:00 +22°C° 0 mm 3 mps 754 mmHg 49%
    01:00 +21°C° 0 mm 2 mps 754 mmHg 50%
    02:00 +21°C° 0 mm 2 mps 754 mmHg 51%
    03:00 +21°C° 0 mm 1 mps 754 mmHg 52%
    04:00 +22°C° 0 mm 1 mps 754 mmHg 50%
    05:00 +23°C° 0 mm 1 mps 754 mmHg 49%
    06:00 +23°C° 0 mm 1 mps 754 mmHg 47%
    07:00 +25°C° 0 mm 1 mps 754 mmHg 42%
    08:00 +27°C° 0 mm 2 mps 753 mmHg 37%
    09:00 +28°C° 0 mm 2 mps 753 mmHg 32%
    10:00 +30°C° 0 mm 2 mps 753 mmHg 30%
    11:00 +31°C° 0 mm 2 mps 753 mmHg 27%
    12:00 +34°C° 0 mm 2 mps 752 mmHg 25%
    13:00 +35°C° 0 mm 2 mps 752 mmHg 24%
    14:00 +35°C° 0 mm 3 mps 752 mmHg 23%
    15:00 +36°C° 0 mm 3 mps 751 mmHg 21%
    16:00 +36°C° 0 mm 3 mps 751 mmHg 22%
    17:00 +35°C° 0 mm 3 mps 751 mmHg 23%
    18:00 +35°C° 0 mm 4 mps 751 mmHg 24%
    19:00 +33°C° 0 mm 4 mps 751 mmHg 27%
    20:00 +30°C° 0 mm 4 mps 752 mmHg 30%
    21:00 +27°C° 0 mm 4 mps 752 mmHg 33%
    22:00 +26°C° 0 mm 3 mps 752 mmHg 35%
    23:00 +25°C° 0 mm 3 mps 752 mmHg 38%
    Show more